Pullman, WA

8:49 AM PDT on August 30, 2016 (GMT -0700)
Pullman-Moscow Regional

Weather History for KPUW - October, 2013

Change the Weather History Date:

Friday, October 11, 2013

  Actual Average Record
Temperature  
Mean Temperature 47 °F 49 °F  
Max Temperature 54 °F 62 °F 86 °F (1988)
Min Temperature 40 °F 37 °F 8 °F (2009)
Degree Days  
Heating Degree Days 18 16  
Month to date heating degree days 210 155  
Since 1 July heating degree days 429 516  
Cooling Degree Days 0 0  
Month to date cooling degree days 0 0  
Year to date cooling degree days 334 212  
Moisture  
Dew Point 38 °F    
Average Humidity 70    
Maximum Humidity 89    
Minimum Humidity 50    
Precipitation  
Precipitation 0.00 in 0.04 in 1.07 in (1962)
Month to date precipitation 0.13 0.38  
Year to date precipitation 11.67 12.07  
Sea Level Pressure  
Sea Level Pressure 30.09 in    
Wind  
Wind Speed 1 mph (West)    
Max Wind Speed 10 mph    
Max Gust Speed 13 mph    
Visibility 10 miles    
Events      
T = Trace of Precipitation, MM = Missing Value Source: NWS Daily Summary

Daily Weather History Graph

Daily Weather History Graph

Search for Another Location

Airport or City:

Trip Planner

Search our weather history database for the weather conditions in past years. The results will help you decide how hot, cold, wet, or windy it might be!

Date:

Astronomy

Oct. 11, 2013 Rise Set
Actual Time 7:01 AM PDT 6:08 PM PDT
Civil Twilight 6:30 AM PDT 6:38 PM PDT
Nautical Twilight 5:55 AM PDT 7:13 PM PDT
Astronomical Twilight 5:20 AM PDT 7:48 PM PDT
Moon 1:58 PM PDT (10/11) 11:48 PM PDT (10/11)
Length of Visible Light 12h 07m
Length of Day
11h 07m
Waxing Crescent, 48% of the Moon is Illuminated
Oct 11
Waxing Crescent
Oct 11
First Quarter
Oct 18
Full
Oct 26
Last Quarter
Nov 3
New

Hourly Weather History & Observations

Time (PDT) Temp. Windchill Dew Point Humidity Pressure Visibility Wind Dir Wind Speed Gust Speed Precip Events Conditions
12:53 AM 45.0 °F - 36.0 °F 71% 30.02 in 10.0 mi Calm Calm - N/A   Overcast
1:53 AM 44.1 °F - 37.0 °F 76% 30.05 in 10.0 mi Calm Calm - N/A   Overcast
2:53 AM 43.0 °F - 37.9 °F 82% 30.05 in 10.0 mi Calm Calm - N/A   Overcast
3:53 AM 41.0 °F - 36.0 °F 82% 30.06 in 10.0 mi Calm Calm - N/A   Overcast
4:53 AM 45.0 °F 42.6 °F 39.0 °F 80% 30.08 in 10.0 mi WNW 4.6 mph - N/A   Overcast
5:53 AM 43.0 °F - 37.9 °F 82% 30.09 in 10.0 mi Calm Calm - N/A   Overcast
6:53 AM 43.0 °F - 39.0 °F 86% 30.11 in 10.0 mi Calm Calm - N/A   Overcast
7:53 AM 45.0 °F - 39.9 °F 82% 30.12 in 10.0 mi Calm Calm - N/A   Overcast
8:53 AM 45.0 °F - 39.9 °F 82% 30.13 in 10.0 mi Calm Calm - N/A   Overcast
9:53 AM 46.0 °F - 39.9 °F 79% 30.14 in 10.0 mi Calm Calm - N/A   Overcast
10:53 AM 48.9 °F - 41.0 °F 74% 30.14 in 10.0 mi Calm Calm - N/A   Overcast
11:53 AM 50.0 °F - 39.9 °F 68% 30.14 in 10.0 mi Calm Calm - N/A   Overcast
12:12 PM 50.0 °F - 39.2 °F 66% 30.11 in 10.0 mi WSW 4.6 mph - N/A   Overcast
12:22 PM 51.8 °F - 39.2 °F 62% 30.11 in 10.0 mi WSW 5.8 mph - N/A   Overcast
12:29 PM 51.8 °F - 39.2 °F 62% 30.11 in 10.0 mi Calm Calm - N/A   Overcast
12:44 PM 51.8 °F - 39.2 °F 62% 30.10 in 10.0 mi Calm Calm - N/A   Overcast
12:53 PM 52.0 °F - 39.0 °F 61% 30.12 in 10.0 mi WSW 10.4 mph - N/A   Overcast
1:53 PM 52.0 °F - 39.0 °F 61% 30.12 in 10.0 mi Calm Calm - N/A   Overcast
2:53 PM 53.1 °F - 37.9 °F 57% 30.11 in 10.0 mi Variable 5.8 mph - N/A   Overcast
3:53 PM 53.1 °F - 36.0 °F 52% 30.11 in 10.0 mi NW 3.5 mph - N/A   Overcast
4:53 PM 53.1 °F - 36.0 °F 52% 30.09 in 7.0 mi Calm Calm - N/A   Overcast
5:53 PM 52.0 °F - 37.0 °F 57% 30.09 in 4.0 mi Calm Calm - N/A   Haze
6:53 PM 50.0 °F - 37.9 °F 63% 30.09 in 10.0 mi Calm Calm - N/A   Overcast
7:53 PM 48.0 °F - 37.9 °F 68% 30.08 in 10.0 mi Calm Calm - N/A   Overcast
8:53 PM 48.0 °F - 39.0 °F 71% 30.08 in 10.0 mi Calm Calm - N/A   Overcast
9:53 PM 48.0 °F - 39.0 °F 71% 30.07 in 10.0 mi NE 4.6 mph - N/A   Overcast
10:53 PM 45.0 °F - 39.0 °F 80% 30.07 in 10.0 mi Calm Calm - N/A   Mostly Cloudy
11:53 PM 45.0 °F - 37.9 °F 76% 30.06 in 10.0 mi Calm Calm - N/A   Mostly Cloudy